Regional Weather Roundup
Issued by NWS

Home | Current Version | Previous Version | Text Only | Print | Product List | Glossary Off
Versions: 1 2 3 4 5 6 7 8 9 10 11 12 13 14 15 16 17 18 19 20 21 22 23 24 25 26 27 28 29 30 31 32 33 34 35 36 37 38 39 40 41 42 43 44 45 46 47 48 49 50

418
ASUS43 KIND 230609
RWRIN

WEATHER ROUNDUP FOR INDIANA
NATIONAL WEATHER SERVICE INDIANAPOLIS IN
200 AM EDT THU MAR 23 2017

NOTE: "FAIR" INDICATES FEW OR NO CLOUDS BELOW 12,000 FEET WITH NO
SIGNIFICANT WEATHER AND/OR OBSTRUCTIONS TO VISIBILITY.

* - STATION DOES NOT REPORT WEATHER SUCH AS PRECIPITATION OR FOG.

+ - STATION NOT QUALITY CONTROLLED BY THE NATIONAL WEATHER SERVICE.
    USE DATA WITH CAUTION...ESPECIALLY DEWPOINT AND RELATIVE
    HUMIDITY OBSERVATIONS.

INZ001>003-010>013-019-020-230700-
NORTHWEST INDIANA

CITY           SKY/WX    TMP DP  RH WIND       PRES   REMARKS
GARY /AIRPORT/ CLEAR     29  21  72 E3        30.48F
KNOX *+        PTCLDY    28   1  31 SE3       30.49R
LA PORTE +     CLEAR     26  19  75 CALM      30.49S
6HR MIN TEMP:  24; 6HR MAX TEMP:  31;

MICHIGAN CITY+ CLEAR     23  19  86 CALM      30.50S
MONTICELLO +   CLEAR     30  20  67 E6        30.47R WCI  24
6HR MIN TEMP:  30; 6HR MAX TEMP:  36;

RENSSELAER +     N/A     28  23  80 E6        30.47S WCI  22
VALPARAISO     CLEAR     26  21  81 E3        30.48S
6HR MIN TEMP:  25; 6HR MAX TEMP:  32;


$$

LMZ046-743>745-230700-
SOUTHERN LAKE MICHIGAN

STATION/POSITION TIME  TEMP    WIND        PRES    WAVE
                       AIR SEA DIR/SP/G            HT
                 (UTC) (F)     (DEG/KT/KT) (MB)    (FT)
BURNS HARBOR     0540   30     100/  5/  7 1032.5S
MICHIGAN CITY    0540   29      70/  4/  5   N/A

$$

INZ004-005-014>016-021>024-230700-
NORTH CENTRAL INDIANA

CITY           SKY/WX    TMP DP  RH WIND       PRES   REMARKS
GOSHEN         CLEAR     27  15  61 SE6       30.48S WCI  20
6HR MIN TEMP:  27; 6HR MAX TEMP:  34;

LOGANSPORT +   CLEAR     28  21  74 E7        30.48S WCI  21
PERU/GRISSOM   CLEAR     29  22  75 E10       30.45S WCI  20
6HR MIN TEMP:  29; 6HR MAX TEMP:  35;

ROCHESTER +    CLEAR     32  21  64 SE6       30.49R WCI  26
SOUTH BEND     CLEAR     28  16  60 SE5       30.49R WCI  23
6HR MIN TEMP:  25; 6HR MAX TEMP:  35;

WARSAW +       CLEAR     27  18  69 SE5       30.48S WCI  21

$$

INZ006>009-017-018-025>027-230700-
NORTHEAST INDIANA

CITY           SKY/WX    TMP DP  RH WIND       PRES   REMARKS
ANGOLA *+      CLEAR     25  16  68 SE7       30.49S WCI  17
AUBURN +       CLEAR     27  16  63 E5        30.50F WCI  21
FORT WAYNE     CLEAR     26  18  71 E8        30.49S WCI  18
6HR MIN TEMP:  26; 6HR MAX TEMP:  33;

HUNTINGTON +   CLEAR     27  17  66 SE7       30.49R WCI  19
6HR MIN TEMP:  27; 6HR MAX TEMP:  32;

KENDALLVILLE + CLEAR     25  16  70 SE7       30.48F WCI  17

$$

INZ028-029-035-036-043>045-051>053-230700-
WEST CENTRAL INDIANA

CITY           SKY/WX    TMP DP  RH WIND       PRES   REMARKS
CRAWFORDSVL +  CLEAR     27  22  82 E7        30.44S WCI  19
6HR MIN TEMP:  27; 6HR MAX TEMP:  34;

GREENCASTLE +  CLEAR     30  21  69 E8        30.43F WCI  23
LAFAYETTE      CLEAR     28  21  75 E9        30.46R WCI  19
6HR MIN TEMP:  27; 6HR MAX TEMP:  35;

TERRE HAUTE    CLEAR     31  21  66 E8        30.43F WCI  23
6HR MIN TEMP:  30; 6HR MAX TEMP:  39;


$$

INZ030>032-037>040-046>048-054>057-064-065-230700-
CENTRAL INDIANA

CITY           SKY/WX    TMP DP  RH WIND       PRES   REMARKS
CP ATTERBURY + CLEAR     30  23  74 CALM      30.45F
FRANKFORT +    PTCLDY    31  25  77 SE9       30.47R WCI  23
6HR MIN TEMP:  31; 6HR MAX TEMP:  37;

INDIANAPOLIS   CLEAR     31  20  63 E12       30.44F WCI  22
6HR MIN TEMP:  31; 6HR MAX TEMP:  37;

-EAGLE CREEK   CLEAR     30  19  63 E9        30.44F WCI  22
6HR MIN TEMP:  30; 6HR MAX TEMP:  37;

KOKOMO +       CLEAR     29  23  78 E12       30.47S WCI  19
6HR MIN TEMP:  29; 6HR MAX TEMP:  34;

MARION +       CLEAR     28  20  71 SE8       30.48S WCI  20
MT COMFORT *+  PTCLDY    28  21  74 E8        30.45S WCI  20
SHELBYVILLE    CLEAR     30  21  69 E8        30.44F WCI  22
6HR MIN TEMP:  29; 6HR MAX TEMP:  37;

ZIONSVILLE +   PTCLDY    29  21  74 E8        30.45F WCI  21
6HR MIN TEMP:  28; 6HR MAX TEMP:  34;


$$

INZ033-034-041-042-049-050-058-059-230700-
EAST CENTRAL INDIANA

CITY           SKY/WX    TMP DP  RH WIND       PRES   REMARKS
MUNCIE         CLEAR     29  21  72 E10       30.47S WCI  20
6HR MIN TEMP:  29; 6HR MAX TEMP:  35;

RICHMOND +     CLEAR     27  19  74 E9        30.45F WCI  17

$$

INZ060-061-067>069-081>083-085>088-230700-
SOUTHWEST INDIANA

CITY           SKY/WX    TMP DP  RH WIND       PRES   REMARKS
EVANSVILLE     CLEAR     37  21  52 E6        30.40F
6HR MIN TEMP:  37; 6HR MAX TEMP:  46;

HUNTINGBURG *+ CLEAR     36  20  52 E10       30.41F
6HR MIN TEMP:  35; 6HR MAX TEMP:  43;

WASHINGTON +   CLEAR     33  21  60 MISG      30.41F
6HR MIN TEMP:  33; 6HR MAX TEMP:  43;


$$

INZ062-063-066-070>080-084-089>092-230700-
SOUTH CENTRAL AND SOUTHEAST INDIANA

CITY           SKY/WX    TMP DP  RH WIND       PRES   REMARKS
BEDFORD +      CLEAR     32  19  59 E7        30.42F WCI  26
BLOOMINGTON    CLEAR     32  19  58 E8        30.42S WCI  25
6HR MIN TEMP:  32; 6HR MAX TEMP:  39;

MADISON *+     CLEAR     32  19  59 E8        30.45S WCI  25
NORTH VERNON + CLEAR     32  21  64 E8        30.44F WCI  25
SEYMOUR +      CLOUDY    30  21  69 NE5       30.45S WCI  25

$$





USA.gov is the U.S. government's official web portal to all federal, state and local government web resources and services.